Starlink 33630

operational
NORAD ID: 63477 Int'l Des: 2025-070 Owner: SPXS Country: US Constellation: starlink
LEOCIRCULAR

Über Starlink 33630

Beschreibung wird geladen...

Live-Position

3D-Globus wird geladen...

Nächste Überflüge

Höhenverlauf

Altitude vs Time

uPlot chart will show altitude changes over time

Zweizeiliger Elementsatz

1 63477U 25070T 25261.10874884 .00020774 00000-0 76181-3 0 9993
2 63477 43.0008 150.8557 0001701 255.7724 104.2938 15.27601325 26621
Epoch: 18. Sept. 2025 • Age: 12 hours

Aktueller Status

Höhe 495.0 km
Geschwindigkeit 7.62 km/s
Subsatellitenpunkt -42.77°S, 152.36°W
Startdatum 6. Apr. 2025
Alter 0.4 years
Typ internet

Technische Details

Klassifizierung Payload
Masse 575.00 kg
Trockenmasse 530.00 kg
Gesamtmasse 575.00 kg
Länge 0.30 m
Durchmesser 4.10 m
Spannweite 29.00 m
Form Box + pan
Hersteller SPXS
Bus-Typ Starlink V2MO
Phasenstatus In Orbit
Besitzer/Staat SPXS/US

Große Konstellationen

Loading constellations...